Погода Верхний Баскунчак

Погода Верхний Баскунчак : погода сейчас, прогноз погоды и архив. Всё, что Вы хотите узнать о погоде Верхний Баскунчак!

Хотите узнать прогноз погоды Верхний Баскунчак? Тогда Вам сюда: Погода Верхний Баскунчак

Поиск расширенной информации на нашем сайте:

Другие новости

Новости СМИ2

Главная страница сайта

Новости сайта

03.07.2017

Напоминаем, что на нашем специализированном сайте Метеоцентр.Азия вы можете получить высокодетализированные автоматические прогнозы погоды по пунктам России, СНГ и мира в авиационном формате (включающие направление и скорость ветра, видимость, явления погоды, количество и форму облачности, нижнюю и верхнюю границу облачности).


Погода Верхний Баскунчак - сегодня

Время (UTC), дата Ветер
(°,м/с) 
Видим.   Явления Облачность Т
(°С)
Тd
(°С)
f(%) Тe
(°С)
Pmin
(гПа)
dP
(гПа)
Po
(мм)
O2
(г/м3)
Тmin Tmax R s Состояние
почвы
21 11.11.18 060 (СВ) 6-11{13}  10 км  пыльный позёмок  10/10 600 м 
[Sc]
-4.3 -15.8 40 -9  1042.3  1.4  778  320           
00 12.11.18 060 (СВ) 6-11{13}  10 км  пыльный позёмок  10/10 600 м 
[Sc]
-5.9 -15.7 46 -10  1042.8  0.4  779  322           
03 12.11.18 060 (СВ) 10 км  пыльный позёмок  10/10 600 м 
[Sc]
-8.2 -16.3 52 -13  1043.6  0.8  779  325  -8.2         
06 12.11.18 060 (СВ) 6-12  10 км  пыльный позёмок  4/0 верхняя 
[Ci sp]
-8.3 -16.4 52 -13  1044.5  0.9  780  325  -9         
09 12.11.18 060 (СВ) 7-13{13}  10 км  пыльный позёмок  4/0 верхняя 
[Ci fib]
-4.4 -19.6 29 -9  1043.8  -0.6  779  321           
12 12.11.18 070 (В) 8-13{15}  10 км  пыльный позёмок  8/0 верхняя 
[Ci sp]
-3 -21 23 -8  1043.3  -0.5  779  319           
15 12.11.18 060 (СВ) 10 км  пыльный позёмок  8/0 средняя, верхняя 
[Ac trans|Ci sp]
-4.6 -19.4 30 -9  1043.5  0.2  779  321    -2.6       
18 12.11.18 070 (В) 8-13{14}  10 км  пыльный позёмок  10/10 600 м 
[Sc]
-4.1 -19 30 -9  1043  -0.5  779  320           
21 12.11.18 080 (В) 7-12{15}  10 км  пыльный позёмок  10/10 600 м 
[Sc]
-4.6 -17.4 36 -9  1042.8  -0.2  779  321           
00 13.11.18 070 (В) 6{14}  10 км  пыльный позёмок  10/10 600 м 
[Sc]
-5.3 -16.5 41 -10  1042.1  -0.7  778  321           
03 13.11.18 070 (В) 10 км  пыльный позёмок  10/10 600 м 
[Sc]
-6.3 -14.9 50 -11  1042.1  778  322  -6.3         
06 13.11.18 070 (В) 7-11  10 км  пыльный позёмок  10/10 600 м 
[Sc]
-6.4 -16.3 45 -12  1042.5  0.3  778  323  -6.4         
12 13.11.18 070 (В) 7-12{14}  10 км  пыльный позёмок  10/10 600 м 
[Sc]
-0.4 -19.4 22 -4  1041.6  -0.7  778  315           
15 13.11.18 070 (В) 5{12}  20000 м    ясно 
-3.5 -17.3 33 -7  1042.1  0.5  778  319    +0       
18 13.11.18 070 (В) 20000 м    ясно 
-5.7 -16.1 44 -9  1042.2  0.1  778  322           
21 13.11.18 070 (В) 20000 м    ясно 
-7.1 -15.6 51 -11  1041.3  -0.9  777  323           
00 14.11.18 070 (В) 20000 м    ясно 
-8.6 -16.3 54 -12  1040.4  -1  777  325           
03 14.11.18 060 (СВ) 20000 м    ясно 
-9.6 -16.2 59 -14  1039.7  -0.6  776  326  -9.6         
06 14.11.18 080 (В) 20000 м    ясно 
-5.7 -15.4 46 -9  1039.6  -0.1  776  321  -9.9         
09 14.11.18 080 (В) 5{10}  20000 м    ясно 
+0.7 -16.8 26 -2  1038.1  -1.3  775  313           
12 14.11.18 080 (В) 5{11}  20000 м    ясно 
+2 -17.5 22 -1  1036.6  -1.6  774  311           
18 14.11.18 080 (В) 20000 м    ясно 
-5.8 -19 34 -8  1036.3  -0.3  774  320           
21 14.11.18 070 (В) 20000 м    ясно 
-7.6 -17.9 43 -10  1035.8  -0.5  773  322           
00 15.11.18 070 (В) 20000 м    ясно 
-9 -17.7 49 -12  1034.7  -1.1  773  323           
03 15.11.18 060 (СВ) 20000 м    ясно 
-10.3 -17.2 57 -14  1034.3  -0.5  772  325  -10.3         
Время (UTC), дата Ветер
(°,м/с) 
Видим.   Явления Облачность Т
(°С)
Тd
(°С)
f(%) Тe
(°С)
Pmin
(гПа)
dP
(гПа)
Po
(мм)
O2
(г/м3)
Тmin Tmax R s Состояние
почвы

Для получения пояснительной информации подведите курсор к названию столбца.

ПОГОДА Верхний Баскунчак - архив

Всё, что Вы хотите узнать о погоде Верхний Баскунчак - удобно и подробно!

Выберите нужную дату (начиная с 1 января 2015* года) и нажмите кнопку "Найти".
Будут отображены архивные сводки погоды по пункту Верхний Баскунчак, начиная с указанной даты.


Отображать данные в формате CSV (для использования в таблицах Excel)


Внимание! Наш архив погоды предназначен исключительно для личного некоммерческого использования в познавательных целях. Если Вам необходимы официальные справки о состоянии погоды (для производственных, юридических, коммерческих и т.п. целей), обращайтесь в органы Росгидромета.

*Примечание: данная дата относится к архиву по метеостанциям СССР (Россия, СНГ, Балтия).
Архив по метеостанциям Зарубежной Европы и Азии (кроме Китая) хранится 10 дней, по другим регионам земного шара (Китай, Африка, Америка, Австралия, Океания) - 1 день.

Верхний Баскунчак - район местоположения метеостанции


Название, широта, долгота, высота метеостанции:
Верхний Баскунчак 48.2°ш. 46.7°д. 34 м над ур. моря [Российская Федерация]

Дополнительная информация

В oтличие oт бoльшинства пoгoдных сайтoв мы публикуем пoдрoбную метеoинфoрмацию в детальнoм прoфессиoнальнoм фoрмате.

Характеристики температуры и влажнoсти вoздуха измеряются на высoте 2 м в тени вдали oт зданий и деревьев.
Скoрoсть ветра измеряется на высoте 10 м (на урoвне рoста челoвека скoрoсть ветра ниже в 1.5-2 раза). Если метеoстанция нахoдится в гoрoде или в лесу, тo скoрoсть ветра занижена на 2-4 м/с пo сравнению с oткрытым местoм. Скoрoсть ветра над акватoриями крупных рек и oзёр, а также на вершинах хoлмoв на 2-5 м/с выше, чем в oбычных услoвиях.
Атмoсфернoе давление в разных тoчках местнoсти мoжет значительнo oтличаться oт давления на метеoстанции, в зависимoсти oт услoвий рельефа (при пoдъёме на 10 м давление пoнижается примернo на 1 мм рт.ст.).